Погода в Ле-Гозье

Гваделупа     16°12′22″N   61°29′41″W
темп.,
°C
ветер,
м/с
пор.,
м/с
влажн.,
%
обл.,
%
осадки,
мм/ч
давл.,
гПа
погр.,
м
19 января, ср
ср1923:00+23в37836 0.3 1018309
02:00+23в36805 0.5 1017279
05:00+23в37835 0.4 1017309
08:00+24всв57796 1.0 1019764
11:00+27в676710 1.0 10191195
14:00+27в77645 1.8 10171318
17:00+25в677530 0.5 1016922
20:00+23в488316 2.0 1018373
20 января, чт
чт2023:00+23в487936 0.9 1019437
02:00+24в5868100 1.0 1017566
05:00+23вюв487510 0.0 1017417
08:00+24в577710 0.1 1018804
11:00+26вюв686925 0.9 10181147
14:00+27в676726 2.4 10161163
17:00+25в68768 1.6 1016844
20:00+24в597911 2.4 1017516
21 января, пт
пт2123:00+23в59762 0.1 1017509
02:00+23вюв59776 0.1 1016474
05:00+22в48849 0.3 1015390
08:00+24в58808 1.4 1017787
11:00+26в8107112 1.7 10171229
14:00+27в786718 2.8 10151231
17:00+25всв687332 1.0 1015871
20:00+23в59744 1.1 1017533
22 января, сб
сб2223:00+23в487419 0.0 1017441
02:00+23всв59815 0.2 1015460
05:00+23всв59760 0.5 1014450
08:00+24в58730 0.5 1016736
11:00+27всв786732 0.6 10171255
14:00+26в677032 2.8 10141092
17:00+25в57746 2.3 1014702
20:00+23в36832 2.4 1016259
23 января, вс
вс2323:00+23всв36874 1.1 1015247
02:00+23вюв48831 2.8 1014373
05:00+22вюв488713 0.4 1014310
08:00+24вюв47786 0.6 1015602
11:00+27вюв676719 0.4 10161329
14:00+27вюв56658 0.6 10131260
17:00+26вюв567412 0.3 1013958
20:00+24вюв47837 1.1 1014385